Time,TemperatureF,DewpointF,PressureIn,WindDirection,WindDirectionDegrees,WindSpeedMPH,WindSpeedGustMPH,Humidity,HourlyPrecipIn,Conditions,Clouds,dailyrainin,SoftwareType,DateUTC
2013-01-10 00:03:00,36.0,30.0,-100.00,ESE,103,4.0,17.0,78,0.00,,,-99.99,,2013-01-10 05:03:00,
2013-01-10 00:12:00,34.0,30.0,-100.00,East,90,3.0,17.0,81,0.00,,,-99.99,,2013-01-10 05:12:00,
2013-01-10 00:22:00,36.0,30.0,-100.00,ENE,73,2.0,17.0,80,0.00,,,-99.99,,2013-01-10 05:22:00,
2013-01-10 00:33:00,35.0,30.0,-100.00,ENE,77,4.0,17.0,78,0.00,,,-99.99,,2013-01-10 05:33:00,
2013-01-10 00:43:00,36.0,30.0,-100.00,ENE,77,3.0,17.0,80,0.00,,,-99.99,,2013-01-10 05:43:00,
2013-01-10 00:52:00,33.0,28.0,-100.00,ESE,103,2.0,17.0,82,0.00,,,-99.99,,2013-01-10 05:52:00,
2013-01-10 01:02:00,33.0,30.0,-100.00,East,97,1.0,17.0,84,0.00,,,-99.99,,2013-01-10 06:02:00,
2013-01-10 01:12:00,32.0,28.0,-100.00,NE,48,0.0,17.0,85,0.00,,,-99.99,,2013-01-10 06:12:00,
2013-01-10 01:22:00,34.0,30.0,-100.00,ENE,63,0.0,17.0,85,0.00,,,-99.99,,2013-01-10 06:22:00,
2013-01-10 01:32:00,32.0,28.0,-100.00,NE,55,0.0,17.0,85,0.00,,,-99.99,,2013-01-10 06:32:00,
2013-01-10 01:42:00,34.0,30.0,-100.00,ENE,77,1.0,17.0,85,0.00,,,-99.99,,2013-01-10 06:42:00,
2013-01-10 01:52:00,33.0,30.0,-100.00,ENE,62,0.0,17.0,85,0.00,,,-99.99,,2013-01-10 06:52:00,
2013-01-10 02:02:00,34.0,30.0,-100.00,East,101,0.0,17.0,84,0.00,,,-99.99,,2013-01-10 07:02:00,
2013-01-10 02:12:00,33.0,28.0,-100.00,NNE,22,1.0,1.0,81,0.00,,,-99.99,,2013-01-10 07:12:00,
2013-01-10 02:22:00,35.0,32.0,-100.00,ESE,111,0.0,1.0,85,0.00,,,-99.99,,2013-01-10 07:22:00,
2013-01-10 02:32:00,33.0,30.0,-100.00,ESE,122,1.0,1.0,88,0.00,,,-99.99,,2013-01-10 07:32:00,
2013-01-10 02:42:00,34.0,30.0,-100.00,SSE,152,0.0,1.0,86,0.00,,,-99.99,,2013-01-10 07:42:00,
2013-01-10 02:52:00,33.0,30.0,-100.00,NNE,21,0.0,1.0,88,0.00,,,-99.99,,2013-01-10 07:52:00,
2013-01-10 03:02:00,33.0,30.0,-100.00,NNE,31,0.0,1.0,89,0.00,,,-99.99,,2013-01-10 08:02:00,
2013-01-10 03:12:00,32.0,30.0,-100.00,NE,40,0.0,1.0,90,0.00,,,-99.99,,2013-01-10 08:12:00,
2013-01-10 03:22:00,31.0,30.0,-100.00,NE,50,0.0,1.0,90,0.00,,,-99.99,,2013-01-10 08:22:00,
2013-01-10 03:32:00,32.0,30.0,-100.00,ENE,69,0.0,1.0,91,0.00,,,-99.99,,2013-01-10 08:32:00,
2013-01-10 03:42:00,32.0,30.0,-100.00,ENE,69,0.0,1.0,90,0.00,,,-99.99,,2013-01-10 08:42:00,
2013-01-10 03:52:00,30.0,28.0,-100.00,ENE,73,0.0,1.0,90,0.00,,,-99.99,,2013-01-10 08:52:00,
2013-01-10 04:02:00,32.0,32.0,-100.00,SW,232,0.0,1.0,93,0.00,,,-99.99,,2013-01-10 09:02:00,
2013-01-10 04:12:00,32.0,30.0,-100.00,WSW,242,0.0,1.0,91,0.00,,,-99.99,,2013-01-10 09:12:00,
2013-01-10 04:22:00,33.0,32.0,-100.00,WSW,249,0.0,1.0,93,0.00,,,-99.99,,2013-01-10 09:22:00,
2013-01-10 04:32:00,29.0,27.0,-100.00,NE,53,1.0,1.0,89,0.00,,,-99.99,,2013-01-10 09:32:00,
2013-01-10 04:42:00,29.0,28.0,-100.00,East,93,0.0,1.0,93,0.00,,,-99.99,,2013-01-10 09:42:00,
2013-01-10 04:52:00,27.0,27.0,-100.00,East,94,0.0,1.0,94,0.00,,,-99.99,,2013-01-10 09:52:00,
2013-01-10 05:12:00,28.0,27.0,-100.00,ENE,77,0.0,1.0,93,0.00,,,-99.99,,2013-01-10 10:12:00,
2013-01-10 05:22:00,29.0,28.0,-100.00,SE,136,0.0,1.0,95,0.00,,,-99.99,,2013-01-10 10:22:00,
2013-01-10 05:32:00,26.0,25.0,-100.00,ENE,74,0.0,1.0,95,0.00,,,-99.99,,2013-01-10 10:32:00,
2013-01-10 05:52:00,27.0,27.0,-100.00,WSW,256,0.0,1.0,98,0.00,,,-99.99,,2013-01-10 10:52:00,
2013-01-10 06:22:00,28.0,28.0,-100.00,SE,128,0.0,1.0,98,0.00,,,-99.99,,2013-01-10 11:22:00,
2013-01-10 07:12:00,25.0,25.0,-100.00,NNE,28,0.0,1.0,97,0.00,,,-99.99,,2013-01-10 12:12:00,
2013-01-10 08:12:00,25.0,25.0,-100.00,West,264,0.0,1.0,99,0.00,,,-99.99,,2013-01-10 13:12:00,
2013-01-10 08:32:00,25.0,25.0,-100.00,SW,216,0.0,1.0,98,0.00,,,-99.99,,2013-01-10 13:32:00,
2013-01-10 09:02:00,25.0,25.0,-100.00,SSW,213,0.0,1.0,97,0.00,,,-99.99,,2013-01-10 14:02:00,
2013-01-10 09:22:00,27.0,27.0,-100.00,NE,46,0.0,1.0,97,0.00,,,-99.99,,2013-01-10 14:22:00,
2013-01-10 09:33:00,27.0,27.0,-100.00,North,358,0.0,1.0,94,0.00,,,-99.99,,2013-01-10 14:33:00,
2013-01-10 09:43:00,30.0,30.0,-100.00,North,358,0.0,1.0,94,5.67,,,-99.99,,2013-01-10 14:43:00,
2013-01-10 09:53:00,32.0,30.0,-100.00,North,358,0.0,1.0,89,0.00,,,-99.99,,2013-01-10 14:53:00,
2013-01-10 10:03:00,32.0,30.0,-100.00,NNE,31,0.0,1.0,88,0.00,,,-99.99,,2013-01-10 15:03:00,
2013-01-10 10:12:00,35.0,30.0,-100.00,West,264,0.0,1.0,82,0.00,,,-99.99,,2013-01-10 15:12:00,
2013-01-10 10:23:00,38.0,32.0,-100.00,NW,309,2.0,4.0,80,0.00,,,-99.99,,2013-01-10 15:23:00,
2013-01-10 10:33:00,38.0,32.0,-100.00,WNW,299,3.0,6.0,80,0.00,,,-99.99,,2013-01-10 15:33:00,
2013-01-10 10:43:00,36.0,30.0,-100.00,WNW,286,4.0,6.0,77,0.00,,,-99.99,,2013-01-10 15:43:00,
2013-01-10 10:53:00,36.0,30.0,-100.00,West,280,5.0,6.0,77,0.00,,,-99.99,,2013-01-10 15:53:00,
2013-01-10 11:03:00,35.0,30.0,-100.00,West,264,6.0,6.0,77,0.00,,,-99.99,,2013-01-10 16:03:00,
2013-01-10 11:13:00,35.0,30.0,-100.00,West,264,6.0,6.0,78,0.00,,,-99.99,,2013-01-10 16:13:00,
2013-01-10 11:23:00,36.0,30.0,-100.00,West,271,4.0,6.0,77,0.00,,,-99.99,,2013-01-10 16:23:00,
2013-01-10 11:33:00,37.0,32.0,-100.00,WNW,283,4.0,6.0,77,0.00,,,-99.99,,2013-01-10 16:33:00,
2013-01-10 11:43:00,37.0,30.0,-100.00,West,273,3.0,8.0,73,0.00,,,-99.99,,2013-01-10 16:43:00,
2013-01-10 11:53:00,37.0,30.0,-100.00,West,278,4.0,8.0,72,0.00,,,-99.99,,2013-01-10 16:53:00,
2013-01-10 12:03:00,37.0,30.0,-100.00,WSW,251,5.0,8.0,71,0.00,,,-99.99,,2013-01-10 17:03:00,
2013-01-10 12:12:00,37.0,28.0,-100.00,WSW,254,6.0,8.0,69,0.00,,,-99.99,,2013-01-10 17:12:00,
2013-01-10 12:22:00,38.0,30.0,-100.00,West,265,4.0,8.0,71,0.00,,,-99.99,,2013-01-10 17:22:00,
2013-01-10 12:33:00,38.0,30.0,-100.00,West,261,6.0,8.0,69,0.00,,,-99.99,,2013-01-10 17:33:00,
2013-01-10 12:43:00,38.0,30.0,-100.00,West,262,4.0,8.0,69,0.00,,,-99.99,,2013-01-10 17:43:00,
2013-01-10 12:53:00,38.0,28.0,-100.00,WNW,302,6.0,8.0,67,0.00,,,-99.99,,2013-01-10 17:53:00,
2013-01-10 13:03:00,40.0,30.0,-100.00,NW,313,5.0,8.0,64,0.00,,,-99.99,,2013-01-10 18:03:00,
2013-01-10 13:12:00,40.0,30.0,-100.00,WNW,300,6.0,8.0,67,0.00,,,-99.99,,2013-01-10 18:12:00,
2013-01-10 13:23:00,39.0,30.0,-100.00,WNW,285,6.0,8.0,66,0.00,,,-99.99,,2013-01-10 18:23:00,
2013-01-10 13:33:00,39.0,28.0,-100.00,NW,316,6.0,10.0,63,0.00,,,-99.99,,2013-01-10 18:33:00,
2013-01-10 13:43:00,40.0,30.0,-100.00,WNW,290,6.0,10.0,66,0.00,,,-99.99,,2013-01-10 18:43:00,
2013-01-10 13:52:00,40.0,30.0,-100.00,WNW,290,9.0,12.0,64,0.00,,,-99.99,,2013-01-10 18:52:00,
2013-01-10 14:03:00,39.0,28.0,-100.00,NW,310,9.0,12.0,63,0.00,,,-99.99,,2013-01-10 19:03:00,
2013-01-10 14:13:00,40.0,30.0,-100.00,WNW,282,7.0,12.0,63,0.00,,,-99.99,,2013-01-10 19:13:00,
2013-01-10 14:23:00,40.0,28.0,-100.00,WNW,289,8.0,12.0,63,0.00,,,-99.99,,2013-01-10 19:23:00,
2013-01-10 14:33:00,39.0,28.0,-100.00,West,266,7.0,12.0,64,0.00,,,-99.99,,2013-01-10 19:33:00,
2013-01-10 14:43:00,38.0,28.0,-100.00,WNW,300,6.0,12.0,67,0.00,,,-99.99,,2013-01-10 19:43:00,
2013-01-10 14:53:00,39.0,28.0,-100.00,WNW,296,8.0,12.0,63,0.00,,,-99.99,,2013-01-10 19:53:00,
2013-01-10 15:03:00,41.0,30.0,-100.00,West,268,6.0,12.0,63,0.00,,,-99.99,,2013-01-10 20:03:00,
2013-01-10 15:13:00,39.0,28.0,-100.00,WNW,283,7.0,12.0,63,0.00,,,-99.99,,2013-01-10 20:13:00,
2013-01-10 15:24:00,40.0,30.0,-100.00,WNW,282,6.0,12.0,67,0.00,,,-99.99,,2013-01-10 20:24:00,
2013-01-10 15:33:00,40.0,30.0,-100.00,WNW,297,6.0,12.0,64,0.00,,,-99.99,,2013-01-10 20:33:00,
2013-01-10 15:43:00,40.0,30.0,-100.00,WNW,293,4.0,12.0,64,0.00,,,-99.99,,2013-01-10 20:43:00,
2013-01-10 15:53:00,38.0,27.0,-100.00,NW,321,4.0,12.0,64,0.00,,,-99.99,,2013-01-10 20:53:00,
2013-01-10 16:04:00,38.0,28.0,-100.00,NW,310,2.0,12.0,66,0.00,,,-99.99,,2013-01-10 21:04:00,
2013-01-10 16:13:00,38.0,28.0,-100.00,WNW,295,4.0,12.0,68,0.00,,,-99.99,,2013-01-10 21:13:00,
2013-01-10 16:23:00,39.0,28.0,-100.00,WNW,282,3.0,12.0,64,0.00,,,-99.99,,2013-01-10 21:23:00,
2013-01-10 16:33:00,38.0,28.0,-100.00,WNW,299,4.0,12.0,64,0.00,,,-99.99,,2013-01-10 21:33:00,
2013-01-10 16:43:00,39.0,28.0,-100.00,NW,306,4.0,12.0,66,0.00,,,-99.99,,2013-01-10 21:43:00,
2013-01-10 16:53:00,40.0,30.0,-100.00,West,276,2.0,12.0,68,0.00,,,-99.99,,2013-01-10 21:53:00,
2013-01-10 17:26:00,38.0,30.0,-100.00,WNW,300,2.0,12.0,68,0.00,,,-99.99,,2013-01-10 22:26:00,
2013-01-10 17:33:00,38.0,28.0,-100.00,West,268,3.0,12.0,68,0.00,,,-99.99,,2013-01-10 22:33:00,
2013-01-10 17:43:00,38.0,28.0,-100.00,WNW,282,3.0,12.0,68,0.00,,,-99.99,,2013-01-10 22:43:00,
2013-01-10 18:03:00,40.0,30.0,-100.00,West,268,7.0,12.0,67,0.00,,,-99.99,,2013-01-10 23:03:00,
2013-01-10 18:13:00,38.0,28.0,-100.00,West,268,7.0,12.0,68,0.00,,,-99.99,,2013-01-10 23:13:00,
2013-01-10 18:23:00,38.0,28.0,-100.00,West,273,7.0,12.0,68,0.00,,,-99.99,,2013-01-10 23:23:00,
2013-01-10 18:33:00,38.0,30.0,-100.00,West,269,6.0,12.0,69,0.00,,,-99.99,,2013-01-10 23:33:00,
2013-01-10 18:43:00,38.0,30.0,-100.00,WSW,252,4.0,12.0,69,0.00,,,-99.99,,2013-01-10 23:43:00,
2013-01-10 18:53:00,40.0,32.0,-100.00,WSW,254,4.0,12.0,68,0.00,,,-99.99,,2013-01-10 23:53:00,
2013-01-10 19:03:00,39.0,32.0,-100.00,WSW,241,6.0,12.0,71,0.00,,,-99.99,,2013-01-11 00:03:00,
2013-01-10 19:13:00,40.0,32.0,-100.00,West,266,5.0,12.0,71,0.00,,,-99.99,,2013-01-11 00:13:00,
2013-01-10 19:23:00,39.0,30.0,-100.00,West,264,6.0,12.0,69,0.00,,,-99.99,,2013-01-11 00:23:00,
2013-01-10 19:33:00,40.0,32.0,-100.00,West,280,5.0,12.0,71,0.00,,,-99.99,,2013-01-11 00:33:00,
2013-01-10 19:43:00,40.0,32.0,-100.00,West,280,4.0,12.0,71,0.00,,,-99.99,,2013-01-11 00:43:00,
2013-01-10 19:52:00,39.0,30.0,-100.00,West,269,2.0,12.0,69,0.00,,,-99.99,,2013-01-11 00:52:00,
2013-01-10 20:03:00,40.0,32.0,-100.00,West,262,2.0,12.0,71,0.00,,,-99.99,,2013-01-11 01:03:00,
2013-01-10 20:13:00,41.0,32.0,-100.00,West,273,3.0,12.0,69,0.00,,,-99.99,,2013-01-11 01:13:00,
2013-01-10 20:23:00,40.0,32.0,-100.00,WSW,255,4.0,12.0,69,0.00,,,-99.99,,2013-01-11 01:23:00,
2013-01-10 20:34:00,40.0,32.0,-100.00,West,259,5.0,12.0,68,0.00,,,-99.99,,2013-01-11 01:34:00,
2013-01-10 20:43:00,40.0,32.0,-100.00,WNW,292,4.0,12.0,69,0.00,,,-99.99,,2013-01-11 01:43:00,
2013-01-10 20:53:00,40.0,30.0,-100.00,West,261,2.0,12.0,67,0.00,,,-99.99,,2013-01-11 01:53:00,
2013-01-10 21:03:00,40.0,30.0,-100.00,WNW,286,2.0,12.0,67,0.00,,,-99.99,,2013-01-11 02:03:00,
2013-01-10 21:13:00,40.0,30.0,-100.00,West,259,4.0,12.0,67,0.00,,,-99.99,,2013-01-11 02:13:00,
2013-01-10 21:23:00,39.0,30.0,-100.00,West,272,4.0,12.0,66,0.00,,,-99.99,,2013-01-11 02:23:00,
2013-01-10 21:33:00,40.0,30.0,-100.00,West,271,2.0,12.0,67,0.00,,,-99.99,,2013-01-11 02:33:00,
2013-01-10 21:43:00,40.0,30.0,-100.00,West,265,4.0,12.0,64,0.00,,,-99.99,,2013-01-11 02:43:00,
2013-01-10 21:53:00,40.0,30.0,-100.00,WSW,258,4.0,12.0,66,0.00,,,-99.99,,2013-01-11 02:53:00,
2013-01-10 22:03:00,40.0,28.0,-100.00,SW,224,4.0,12.0,63,0.00,,,-99.99,,2013-01-11 03:03:00,
2013-01-10 22:13:00,40.0,30.0,-100.00,West,264,4.0,12.0,66,0.00,,,-99.99,,2013-01-11 03:13:00,
2013-01-10 22:23:00,40.0,30.0,-100.00,West,264,5.0,12.0,64,0.00,,,-99.99,,2013-01-11 03:23:00,
2013-01-10 22:33:00,40.0,30.0,-100.00,West,268,5.0,12.0,64,0.00,,,-99.99,,2013-01-11 03:33:00,
2013-01-10 22:43:00,40.0,30.0,-100.00,West,268,4.0,12.0,66,0.00,,,-99.99,,2013-01-11 03:43:00,
2013-01-10 22:53:00,39.0,28.0,-100.00,West,271,5.0,12.0,64,0.00,,,-99.99,,2013-01-11 03:53:00,
2013-01-10 23:02:00,40.0,30.0,-100.00,WSW,252,6.0,12.0,64,0.00,,,-99.99,,2013-01-11 04:02:00,
2013-01-10 23:12:00,41.0,30.0,-100.00,West,265,5.0,12.0,64,0.00,,,-99.99,,2013-01-11 04:12:00,
2013-01-10 23:22:00,40.0,30.0,-100.00,WNW,290,6.0,12.0,64,0.00,,,-99.99,,2013-01-11 04:22:00,
2013-01-10 23:33:00,40.0,30.0,-100.00,West,261,6.0,12.0,63,0.00,,,-99.99,,2013-01-11 04:33:00,
2013-01-10 23:43:00,40.0,30.0,-100.00,WNW,299,7.0,12.0,63,0.00,,,-99.99,,2013-01-11 04:43:00,
2013-01-10 23:52:00,40.0,30.0,-100.00,WNW,288,8.0,12.0,63,0.00,,,-99.99,,2013-01-11 04:52:00,